When you browse on this site, cookies collect data to enhance your experience and personalize the content and advertising you see.
Visit our Privacy Policy to learn more. By continuing to use the site, you agree to this use of cookies and data.
  • In Spain
  • List of Countries
  • For 7 days
  • Water Temperature
  • Weather Map
  • Weather Widgets
  • user-avatar
    Login

    Hourly Weather Sumgayit

    Today, 28 March, Saturday

    Time Temperature Precipitation Wind Pressure Humidity
    00:00 +9°C° 0 mm 2 mps 744 mmHg 70%
    01:00 +10°C° 0 mm 1 mps 743 mmHg 73%
    02:00 +9°C° 0 mm 1 mps 743 mmHg 76%
    03:00 +9°C° 0 mm 1 mps 743 mmHg 79%
    04:00 +9°C° 0 mm 1 mps 743 mmHg 80%
    05:00 +9°C° 0 mm 1 mps 743 mmHg 82%
    06:00 +9°C° 0 mm 1 mps 743 mmHg 83%
    07:00 +9°C° 0 mm 2 mps 743 mmHg 75%
    08:00 +10°C° 0 mm 2 mps 743 mmHg 67%
    09:00 +12°C° 0 mm 3 mps 743 mmHg 60%
    10:00 +13°C° 0 mm 3 mps 743 mmHg 56%
    11:00 +13°C° 0 mm 4 mps 742 mmHg 51%
    12:00 +14°C° 0 mm 4 mps 742 mmHg 47%
    13:00 +14°C° 0 mm 4 mps 742 mmHg 46%
    14:00 +14°C° 0 mm 5 mps 741 mmHg 46%
    15:00 +14°C° 0 mm 5 mps 740 mmHg 44%
    16:00 +13°C° 0 mm 4 mps 740 mmHg 47%
    17:00 +12°C° 0 mm 4 mps 740 mmHg 49%
    18:00 +11°C° 0 mm 4 mps 740 mmHg 51%
    19:00 +11°C° 0 mm 3 mps 740 mmHg 53%
    20:00 +10°C° 0 mm 2 mps 740 mmHg 55%
    21:00 +11°C° 0 mm 1 mps 740 mmHg 57%
    22:00 +10°C° 0 mm 1 mps 739 mmHg 58%
    23:00 +10°C° 0 mm 1 mps 739 mmHg 59%

    Tomorrow, 29 March, Sunday

    Time Temperature Precipitation Wind Pressure Humidity
    00:00 +9°C° 0 mm 0 mps 739 mmHg 60%
    01:00 +9°C° 0 mm 0 mps 738 mmHg 58%
    02:00 +9°C° 0 mm 0 mps 738 mmHg 56%
    03:00 +10°C° 0 mm 1 mps 737 mmHg 54%
    04:00 +8°C° 0 mm 0 mps 737 mmHg 53%
    05:00 +8°C° 0 mm 0 mps 737 mmHg 53%
    06:00 +8°C° 0 mm 0 mps 737 mmHg 53%
    07:00 +10°C° 0 mm 1 mps 736 mmHg 45%
    08:00 +12°C° 0 mm 1 mps 736 mmHg 36%
    09:00 +13°C° 0 mm 2 mps 736 mmHg 28%
    10:00 +14°C° 0 mm 2 mps 736 mmHg 27%
    11:00 +14°C° 0 mm 3 mps 735 mmHg 25%
    12:00 +16°C° 0 mm 3 mps 735 mmHg 23%
    13:00 +16°C° 0 mm 3 mps 734 mmHg 23%
    14:00 +16°C° 0 mm 3 mps 734 mmHg 22%
    15:00 +16°C° 0 mm 3 mps 733 mmHg 22%
    16:00 +16°C° 0 mm 3 mps 733 mmHg 23%
    17:00 +14°C° 0 mm 3 mps 733 mmHg 25%
    18:00 +13°C° 0 mm 3 mps 733 mmHg 26%
    19:00 +13°C° 0 mm 3 mps 733 mmHg 31%
    20:00 +13°C° 0 mm 2 mps 733 mmHg 37%
    21:00 +13°C° 0 mm 2 mps 733 mmHg 42%
    22:00 +13°C° 0 mm 2 mps 732 mmHg 44%
    23:00 +13°C° 0 mm 2 mps 732 mmHg 45%

    Day after tomorrow, 30 March, Monday

    Time Temperature Precipitation Wind Pressure Humidity
    00:00 +13°C° 0 mm 2 mps 731 mmHg 47%
    01:00 +11°C° 0 mm 3 mps 731 mmHg 49%
    02:00 +11°C° 0 mm 3 mps 730 mmHg 51%
    03:00 +10°C° 0 mm 4 mps 730 mmHg 52%
    04:00 +10°C° 0 mm 4 mps 730 mmHg 54%
    05:00 +8°C° 0 mm 4 mps 730 mmHg 56%
    06:00 +8°C° 0 mm 4 mps 730 mmHg 58%
    07:00 +10°C° 0 mm 4 mps 730 mmHg 55%
    08:00 +12°C° 0 mm 5 mps 730 mmHg 52%
    09:00 +13°C° 0 mm 5 mps 730 mmHg 49%
    10:00 +14°C° 0 mm 5 mps 730 mmHg 47%
    11:00 +15°C° 0 mm 5 mps 730 mmHg 46%
    12:00 +16°C° 0 mm 5 mps 730 mmHg 44%
    13:00 +16°C° 0 mm 5 mps 730 mmHg 46%
    14:00 +17°C° 0 mm 4 mps 730 mmHg 48%
    15:00 +17°C° 0 mm 4 mps 729 mmHg 50%
    16:00 +14°C° 0 mm 5 mps 730 mmHg 54%
    17:00 +13°C° 0 mm 5 mps 730 mmHg 59%
    18:00 +10°C° 0 mm 6 mps 730 mmHg 63%
    19:00 +10°C° 0 mm 6 mps 731 mmHg 63%
    20:00 +12°C° 0 mm 5 mps 732 mmHg 63%
    21:00 +12°C° 0 mm 5 mps 733 mmHg 63%
    22:00 +11°C° 0 mm 4 mps 733 mmHg 64%
    23:00 +11°C° 0 mm 3 mps 733 mmHg 65%

    31 March, Tuesday

    Time Temperature Precipitation Wind Pressure Humidity
    00:00 +11°C° 0 mm 3 mps 733 mmHg 66%
    01:00 +11°C° 0.1 mm 3 mps 733 mmHg 68%
    02:00 +11°C° 0.1 mm 3 mps 734 mmHg 70%
    03:00 +10°C° 0.1 mm 2 mps 734 mmHg 73%
    04:00 +10°C° 0.2 mm 2 mps 734 mmHg 75%
    05:00 +10°C° 0.2 mm 2 mps 735 mmHg 77%
    06:00 +11°C° 0.2 mm 1 mps 735 mmHg 80%
    07:00 +11°C° 0 mm 1 mps 736 mmHg 75%
    08:00 +12°C° 0 mm 1 mps 736 mmHg 71%
    09:00 +13°C° 0 mm 1 mps 736 mmHg 66%
    10:00 +14°C° 0 mm 2 mps 736 mmHg 62%
    11:00 +15°C° 0 mm 2 mps 736 mmHg 58%
    12:00 +14°C° 0 mm 3 mps 737 mmHg 54%
    13:00 +14°C° 0 mm 4 mps 737 mmHg 55%
    14:00 +14°C° 0 mm 5 mps 737 mmHg 55%
    15:00 +14°C° 0 mm 6 mps 737 mmHg 56%
    16:00 +13°C° 0 mm 6 mps 737 mmHg 61%
    17:00 +11°C° 0 mm 6 mps 737 mmHg 66%
    18:00 +10°C° 0 mm 7 mps 737 mmHg 71%
    19:00 +10°C° 0 mm 5 mps 738 mmHg 72%
    20:00 +11°C° 0 mm 4 mps 738 mmHg 73%
    21:00 +12°C° 0 mm 2 mps 739 mmHg 74%
    22:00 +12°C° 0 mm 2 mps 739 mmHg 75%
    23:00 +12°C° 0 mm 1 mps 739 mmHg 76%

    1 April, Wednesday

    Time Temperature Precipitation Wind Pressure Humidity
    00:00 +11°C° 0 mm 1 mps 739 mmHg 77%
    01:00 +11°C° 0 mm 1 mps 738 mmHg 80%
    02:00 +10°C° 0 mm 1 mps 738 mmHg 82%
    03:00 +10°C° 0 mm 1 mps 738 mmHg 84%
    04:00 +10°C° 0 mm 1 mps 738 mmHg 83%
    05:00 +10°C° 0 mm 1 mps 738 mmHg 82%
    06:00 +10°C° 0 mm 1 mps 738 mmHg 81%
    07:00 +12°C° 0 mm 1 mps 738 mmHg 73%
    08:00 +13°C° 0 mm 2 mps 739 mmHg 65%
    09:00 +13°C° 0 mm 3 mps 739 mmHg 57%
    10:00 +14°C° 0 mm 3 mps 739 mmHg 55%
    11:00 +15°C° 0 mm 4 mps 738 mmHg 53%
    12:00 +16°C° 0 mm 5 mps 738 mmHg 50%
    13:00 +15°C° 0 mm 5 mps 738 mmHg 52%
    14:00 +15°C° 0 mm 5 mps 737 mmHg 54%
    15:00 +15°C° 0 mm 5 mps 737 mmHg 56%
    16:00 +14°C° 0 mm 5 mps 737 mmHg 61%
    17:00 +13°C° 0 mm 4 mps 736 mmHg 65%
    18:00 +12°C° 0 mm 4 mps 736 mmHg 70%
    19:00 +12°C° 0 mm 3 mps 737 mmHg 72%
    20:00 +12°C° 0 mm 3 mps 737 mmHg 74%
    21:00 +12°C° 0 mm 2 mps 737 mmHg 76%
    22:00 +12°C° 0 mm 2 mps 737 mmHg 76%
    23:00 +12°C° 0 mm 1 mps 736 mmHg 76%

    2 April, Thursday

    Time Temperature Precipitation Wind Pressure Humidity
    00:00 +12°C° 0 mm 1 mps 736 mmHg 76%
    01:00 +12°C° 0.8 mm 1 mps 736 mmHg 78%
    02:00 +12°C° 0.8 mm 2 mps 735 mmHg 81%
    03:00 +10°C° 0.8 mm 2 mps 735 mmHg 83%
    04:00 +10°C° 1.6 mm 2 mps 735 mmHg 85%
    05:00 +10°C° 1.6 mm 3 mps 734 mmHg 88%
    06:00 +10°C° 1.6 mm 4 mps 734 mmHg 90%
    07:00 +10°C° 2.8 mm 4 mps 734 mmHg 91%
    08:00 +8°C° 2.8 mm 4 mps 734 mmHg 92%
    09:00 +8°C° 2.8 mm 4 mps 734 mmHg 92%
    10:00 +10°C° 0.7 mm 3 mps 735 mmHg 91%
    11:00 +10°C° 0.7 mm 3 mps 735 mmHg 90%
    12:00 +10°C° 0.7 mm 2 mps 735 mmHg 88%
    13:00 +12°C° 0 mm 2 mps 735 mmHg 84%
    14:00 +12°C° 0 mm 3 mps 735 mmHg 80%
    15:00 +12°C° 0 mm 3 mps 735 mmHg 76%
    16:00 +12°C° 0 mm 4 mps 735 mmHg 79%
    17:00 +10°C° 0 mm 5 mps 736 mmHg 82%
    18:00 +10°C° 0 mm 6 mps 736 mmHg 85%
    19:00 +9°C° 0 mm 6 mps 737 mmHg 85%
    20:00 +9°C° 0 mm 6 mps 737 mmHg 86%
    21:00 +9°C° 0 mm 6 mps 738 mmHg 86%
    22:00 +9°C° 0 mm 5 mps 738 mmHg 85%
    23:00 +9°C° 0 mm 5 mps 738 mmHg 84%
    Show more